Terug naar catalogus

OPS 4682 DEB

ActiefPO
NORAD 38424·DEBRIS·🇺🇸 United States

Gelanceerd Apr 3, 1965 vanaf Vandenberg Space Force Base

Loading…

Volgende Passages (komende 24 uur)

TLE

VersSource: Space-Track

Epoch: Sep 13, 2026, 18:19 UTC

1 38424U 65027ED  26256.76363108  .00000997  00000-0  31025-2 0  9994
2 38424  90.2576   9.2012 0024659 275.4145  84.4166 13.04009366323379

Volg OPS 4682 DEB in realtime met AllMySat

Download on the App Store